Terrell, TX

4:37 AM CST on January 19, 2018 (GMT -0600)
Terrell Municipal

Weather History for KTRL - January, 2014

Change the Weather History Date:

Wednesday, January 22, 2014

  Actual Average (KGVT) Record (KGVT)
Temperature  
Mean Temperature 43 °F -  
Max Temperature 59 °F 54 °F 77 °F (2009)
Min Temperature 27 °F 38 °F 26 °F (2014)
Degree Days  
Heating Degree Days 22    
Moisture  
Dew Point 23 °F    
Average Humidity 46    
Maximum Humidity 69    
Minimum Humidity 28    
Precipitation  
Precipitation 0.00 in - - ()
Sea Level Pressure  
Sea Level Pressure 30.13 in    
Wind  
Wind Speed 5 mph (ESE)    
Max Wind Speed 15 mph    
Max Gust Speed -    
Visibility 10 miles    
Events      
Averages and records for this station are not official NWS values.
T = Trace of Precipitation, MM = Missing Value Source: NWS Daily Summary

Daily Weather History Graph

Daily Weather History Graph

Search for Another Location

Airport or City:

Trip Planner

Search our weather history database for the weather conditions in past years. The results will help you decide how hot, cold, wet, or windy it might be!

Date:

Astronomy

Jan. 22, 2014 Rise Set
Actual Time 7:25 AM CST 5:48 PM CST
Civil Twilight 6:58 AM CST 6:14 PM CST
Nautical Twilight 6:29 AM CST 6:44 PM CST
Astronomical Twilight 5:59 AM CST 7:14 PM CST
Moon 11:58 PM CST (1/22) 10:49 AM CST (1/22)
Length of Visible Light 11h 15m
Length of Day
10h 23m
Waning Gibbous, 65% of the Moon is Illuminated
Jan 22
Waning Gibbous
Jan 23
Last Quarter
Jan 30
New
Feb 6
First Quarter
Feb 14
Full

Hourly Weather History & Observations

Time (CST) Temp. Windchill Dew Point Humidity Pressure Visibility Wind Dir Wind Speed Gust Speed Precip Events Conditions
12:53 AM 32.0 °F - 17.1 °F 54% 30.18 in 10.0 mi Calm Calm - N/A   Clear
1:53 AM 27.0 °F 23.0 °F 18.0 °F 69% 30.18 in 10.0 mi NE 3.5 mph - N/A   Clear
2:53 AM 28.0 °F - 19.0 °F 69% 30.18 in 10.0 mi Calm Calm - N/A   Clear
3:53 AM 30.9 °F - 16.0 °F 54% 30.17 in 10.0 mi Calm Calm - N/A   Clear
4:53 AM 30.0 °F 26.5 °F 17.1 °F 59% 30.15 in 10.0 mi SSE 3.5 mph - N/A   Clear
5:53 AM 28.9 °F 25.2 °F 18.0 °F 64% 30.14 in 10.0 mi SSE 3.5 mph - N/A   Clear
6:53 AM 30.0 °F 23.2 °F 18.0 °F 61% 30.15 in 10.0 mi South 6.9 mph - N/A   Clear
7:53 AM 30.0 °F 24.1 °F 19.0 °F 64% 30.16 in 10.0 mi South 5.8 mph - N/A   Clear
8:53 AM 37.0 °F 31.0 °F 21.9 °F 54% 30.16 in 10.0 mi South 8.1 mph - N/A   Clear
9:53 AM 43.0 °F 36.0 °F 21.9 °F 43% 30.16 in 10.0 mi South 13.8 mph - N/A   Clear
10:53 AM 48.9 °F - 24.1 °F 38% 30.16 in 10.0 mi South 6.9 mph - N/A   Clear
11:53 AM 53.1 °F - 25.0 °F 34% 30.14 in 10.0 mi SSW 8.1 mph - N/A   Clear
12:53 PM 55.9 °F - 26.1 °F 32% 30.10 in 10.0 mi SW 3.5 mph - N/A   Clear
1:53 PM 59.0 °F - 26.1 °F 28% 30.07 in 10.0 mi Calm Calm - N/A   Clear
2:53 PM 59.0 °F - 27.0 °F 29% 30.05 in 10.0 mi Variable 5.8 mph - N/A   Clear
3:53 PM 59.0 °F - 26.1 °F 28% 30.04 in 10.0 mi East 6.9 mph - N/A   Clear
4:53 PM 55.9 °F - 27.0 °F 33% 30.06 in 10.0 mi ENE 5.8 mph - N/A   Clear
5:53 PM 52.0 °F - 28.9 °F 41% 30.08 in 10.0 mi NE 4.6 mph - N/A   Clear
6:53 PM 51.1 °F - 27.0 °F 39% 30.09 in 10.0 mi NE 10.4 mph - N/A   Clear
7:53 PM 48.9 °F - 27.0 °F 43% 30.11 in 10.0 mi NE 8.1 mph - N/A   Clear
8:53 PM 48.0 °F - 26.1 °F 42% 30.13 in 10.0 mi NE 9.2 mph - N/A   Clear
9:53 PM 46.9 °F - 24.1 °F 41% 30.13 in 10.0 mi NE 10.4 mph - N/A   Clear
10:53 PM 46.0 °F 40.6 °F 24.1 °F 42% 30.16 in 10.0 mi NNE 11.5 mph - N/A   Clear
11:53 PM 44.1 °F 37.1 °F 21.9 °F 42% 30.16 in 10.0 mi NNE 15.0 mph - N/A   Clear